DELTA 1 DEB, 2707

Orbit data source: Space-Track

DELTA 1 DEB, 2707 is space debris in SSO originally from a launch on Thu, 26 Jan 1967 UTC launched from the Air Force Western Test Range (AFWTR). Debris objects in space refer to the collection of defunct objects orbiting the Earth. Examples of debris include non-operational satellites, rocket bodies, and fragments generated from explosions, collisions, or faulty payload assembly.

Loading next visibility...
Identifier
2707, 1967-006D
Orbit
SSO
Last TLE update
2 days ago
Origin
Manufacturer
Unknown
Mission
Spacecraft
Bus & Motor
Unknown
Mass
Unknown
Launch date (UTC)
1967-01-26 (58 years ago)
Launch vehicle
Unknown
Launch site
Air Force Western Test Range (AFWTR)
Object type
Payload
Rocket body
Debris
Shape & HBR
Unknown
Radar Cross Section
Small (<0.1 m²)

Expand to show TLE details & history

TLE from 2 days ago
0 DELTA 1 DEB
1 02707U 67006D   25197.35338044 -.00000017  00000-0  13810-3 0  9994
2 02707 101.8414 146.3798 0148946 323.0995 189.6032 12.79386746729402
Epoch: 2025-07-16T08:28Z
TLE epoch observation values (Epoch: 2025-07-16T08:28:52.069Z)
Latitude
26.97872°
Longitude
-89.17509°
Altitude
1,460.433 km
Speed
7.082 km/s
True Right ascension
22h 09m 54s
True Declination
26° 51' 09"
Sunlit
Object was in daylight at epoch
Visualization orbit readout
Latitude
-49.95445°
Longitude
101.18036°
Altitude
1,249.865 km
Speed
7.282 km/s
Apparent Right ascension
09h 54m 44s
Apparent Declination
-46° 05' 46"
Sunlit
Object is in daylight
Visualization observer readout
Local Sidereal Time
20:57:58
Azimuth
234.514° WSW
Elevation
-77.945°
Doppler factor
1
Orbital elements
Apogee altitude
1,456.43 km
Perigee altitude
1,226.47 km
Semi-major axis
7,719.587 km
Eccentricity
0.01489
Inclination
101.8414°
RAAN
146.3798°
Arg. of periapsis
323.0995°
True anomaly
189.3236°
Mean anomaly
189.6032°
Eccentric anomaly
189.46289°
Mean motion
3.20002 °/min
Orbital period
112.5 mins
BSTAR
0.0001381
Loading maneuver chart data...
Loading SW <> Apogee altitude chart data...
Loading historical data...
Loading historical data...
Loading historical data...
Loading historical data...
Loading historical data...
Loading historical data...
Loading historical data...
Other satellites on launch #6 in the year 1967 (1967-01-26 UTC)
|